map of LAZ home
LAZ - Airport
Location
City:  Bom Jesus da Lapa, Bahia, Brazil
ICAO:SBLP
IATA:LAZ

Details
Type:Airport (Aerodrome, Airfield)
Latitude:1315'44"S (-13.262085)
Longitude:4324'29"W (-43.408113)
Datum:WGS 1984
Elevation:1454 ft (443 m)
Variation:22.80W (WMM2015v2 magnetic declination)
-0.04 annual change
Runways:1
Longest:3973 × 98 ft (1211 × 30 m), paved

Time
Time Zone:UTC-3
Local Time:

Weather
TAF:SBLP 041000Z 0412/0424 30006KT 9999 SCT030 TN31/0412Z TX38/0418Z
RMK PFM

Related Locations
Nearby:
Farthest:YAP: 12155 mi / 19561 km
Yap Island [Yap Intl], YAP, FM

Find:

   beyond  
but within

Other Information
Maps:
NOTAMs:
Links:
Sources:

  
  • flag of Brazil
  • flag of Bahia
  

Sectional Chart

Flight Planning
at skyvector.com

Satellite Image

Google Maps Satellite view

 

Copyright © 2004-2019 Karl L. Swartz. All rights reserved.
The Great Circle Mapper name and logo are trademarks of the Great Circle Mapper.
All other trademarks mentioned herein belong to their respective owners.
Please see credits for attibutions and further copyright information.

  Follow gcmap on Facebook Follow gcmap on Twitter GCmap on LinkedIn

hCard Microformat

Geo Microformat